Location: Lourdes
(43.1000°N, 0.0500°W)
Time: 04:46:37
(UTC+00:00)

COSMOS 2251 DEB - Visible Passes

Search period start: 15 June 2021 00:00
Search period end: 25 June 2021 00:00
Orbit: 735 x 843 km, 74.1° (Epoch: 14 June)

Date Brightness Start Highest point End Pass type
(mag) Time Alt. Az. Time Alt. Az. Time Alt. Az.
15 Jun ? 21:28:04 10° W 21:31:38 17° NW 21:35:14 10° NNW visible
16 Jun ? 20:56:16 10° WSW 21:00:41 23° NW 21:05:08 10° N visible
17 Jun ? 20:24:50 10° WSW 20:29:49 32° WNW 20:34:51 10° N visible
18 Jun ? 03:31:03 10° NNE 03:33:44 14° NE 03:36:24 10° ENE visible
19 Jun ? 21:10:18 10° WNW 21:12:00 11° NW 21:13:40 10° NNW visible
20 Jun ? 20:37:38 10° W 20:40:57 16° NW 20:44:17 10° NNW visible
21 Jun ? 03:40:14 10° N 03:44:55 28° ENE 03:49:28 10° ESE visible
22 Jun ? 03:10:01 10° N 03:14:00 20° NE 03:17:54 10° E visible
23 Jun ? 02:40:04 10° NNE 02:43:01 14° NE 02:45:55 10° E visible
24 Jun ? 02:11:15 10° NE 02:11:57 10° NE 02:12:38 10° NE visible
24 Jun ? 20:20:30 10° NW 20:21:18 10° NW 20:22:05 10° NW visible
